[[{"header":{"parameterUnit":"m.s-1","parameterCategory":1,"la1":30.2991,"la2":30.254,"lo1":-89.0895,"lo2":-89.0444,"dy":0.0017,"dx":0.0017,"nx":28,"ny":28,"refTime":"2025-02-12T09:00:00:Z","depth":0,"parameterNumber":2,"parameterNumberName":"U-component_of_WINDS"},"data":[0,0,0,0,0,0,0,0,0,0,0,0,0,0,0,0,0,0,0,0,0,0,0,0,0,0,0,0,0,0,0,0,0,0,0,0,0,0,0,0,0,0,0,0,0,0,0,0,0,0,0,0,0,0,0,0,0,0,-1.834,-1.834,0,-1.8348,-1.8348,-1.8348,-1.8343,-1.8343,-1.8343,-1.8343,-1.8349,-1.8349,-1.835,0,0,0,0,0,0,0,0,0,0,0,0,0,-1.832,-1.8321,-1.834,-1.834,-1.834,-1.8348,-1.8348,-1.8348,-1.8343,-1.8343,-1.8343,-1.8342,-1.8349,-1.8349,-1.835,0,0,0,0,0,0,0,0,0,0,0,0,0,-1.8329,-1.8321,-1.834,-1.8339,-1.8339,-1.8348,-1.8348,-1.8348,-1.8343,-1.8343,-1.8343,-1.8342,-1.8349,-1.8349,-1.835,-1.836,0,0,-1.8352,-1.8352,0,0,0,0,0,0,0,0,-1.8328,-1.8329,-1.8339,-1.8339,-1.8339,-1.8344,-1.8343,-1.8352,-1.8343,-1.8342,-1.8343,-1.8342,-1.8348,-1.8348,-1.835,-1.836,-1.8361,-1.8352,-1.8352,-1.8352,-1.8352,0,0,0,0,0,0,0,-1.8328,-1.8329,-1.8343,-1.8339,-1.8339,-1.8338,-1.8338,-1.8345,-1.8346,-1.8342,-1.8341,-1.8342,-1.8348,-1.835,-1.835,-1.8361,-1.8352,-1.8352,-1.8353,-1.8353,-1.8378,-1.8378,0,0,0,0,0,0,-1.8327,-1.8328,-1.8343,-1.8343,-1.8333,-1.8338,-1.8339,-1.8343,-1.8346,-1.8346,-1.8343,-1.8342,-1.8349,-1.835,-1.8351,-1.8362,-1.8352,-1.8353,-1.8353,-1.8378,-1.8378,-1.8378,0,0,0,0,0,0,-1.8327,-1.8329,-1.8343,-1.8336,-1.8338,-1.8339,-1.8343,-1.8343,-1.8345,-1.8347,-1.8347,-1.8345,-1.8349,-1.835,-1.8357,-1.8362,-1.8353,-1.8354,-1.8377,-1.8378,-1.8378,-1.8385,0,0,0,0,0,0,-1.8326,-1.8328,-1.8333,-1.8336,-1.8338,-1.835,-1.8344,-1.8344,-1.8347,-1.8346,-1.8349,-1.8349,-1.8349,-1.8357,-1.8358,-1.8363,-1.8354,-1.8377,-1.8377,-1.8378,-1.8384,-1.8385,-1.8386,0,0,0,0,0,-1.8326,-1.8334,-1.8333,-1.8335,-1.8343,-1.835,-1.8351,-1.8351,-1.8347,-1.8351,-1.8352,-1.8349,-1.8362,-1.8358,-1.8359,-1.8364,-1.8377,-1.8377,-1.8378,-1.8384,-1.8385,-1.8386,0,0,0,0,0,0,-1.8331,-1.8335,-1.8333,-1.8343,-1.8346,-1.8349,-1.8354,-1.8352,-1.8356,-1.8356,-1.8355,-1.8355,-1.8363,-1.8364,-1.836,-1.8373,-1.8368,-1.8369,-1.8372,-1.8374,-1.8375,-1.8374,-1.8354,0,0,0,0,0,-1.8334,-1.8339,-1.8342,-1.835,-1.8352,-1.8353,-1.8356,-1.8355,-1.8358,-1.8359,-1.8361,-1.8364,-1.8368,-1.8371,-1.8375,-1.8384,-1.8385,-1.8388,-1.839,-1.8391,-1.8391,-1.8395,-1.8397,-1.8381,-1.8381,-1.8381,0,0,-1.8338,-1.8341,-1.8345,-1.8352,-1.8354,-1.8359,-1.8354,-1.836,-1.8364,-1.836,-1.8367,-1.8369,-1.8371,-1.838,-1.8383,-1.8381,-1.8396,-1.8392,-1.8392,-1.8392,-1.8396,-1.8398,-1.8399,-1.8381,-1.8381,-1.8381,0,0,-1.835,-1.8353,-1.836,-1.8362,-1.8366,-1.8367,-1.8368,-1.8371,-1.8372,-1.8379,-1.8377,-1.8381,-1.8389,-1.8391,-1.8393,-1.8404,-1.8402,-1.8406,-1.8412,-1.8416,-1.8417,-1.8418,-1.8421,-1.8423,-1.8407,-1.8407,-1.8407,0,-1.8355,-1.8364,-1.8364,-1.837,-1.8372,-1.837,-1.8376,-1.8379,-1.8383,-1.8385,-1.8383,-1.8392,-1.8394,-1.8402,-1.8405,-1.8407,-1.8408,-1.8405,-1.8417,-1.8418,-1.8419,-1.8422,-1.8424,-1.8407,-1.8407,-1.8407,-1.8407,0,-1.837,-1.8376,-1.8381,-1.8385,-1.8389,-1.8395,-1.8395,-1.8399,-1.8398,-1.8398,-1.8405,-1.8407,-1.8412,-1.8414,-1.8413,-1.8422,-1.842,-1.8417,-1.8412,-1.8421,-1.8424,-1.8425,-1.8408,-1.8408,-1.8407,-1.8407,0,0,-1.8385,-1.8389,-1.8391,-1.8393,-1.8397,-1.8401,-1.8407,-1.8411,-1.8413,-1.8417,-1.8421,-1.8428,-1.8425,-1.8427,-1.8427,-1.843,-1.8438,-1.8427,-1.8427,-1.8428,-1.8447,-1.8449,-1.845,-1.8437,-1.8437,-1.8438,-1.8447,0,-1.8396,-1.8406,-1.8406,-1.8416,-1.842,-1.8418,-1.8423,-1.8425,-1.8426,-1.843,-1.843,-1.8435,-1.8431,-1.8433,-1.8436,-1.8437,-1.8442,-1.8436,-1.844,-1.844,-1.8439,-1.8452,-1.8454,-1.8462,-1.8448,-1.8448,-1.8448,0,-1.841,-1.8414,-1.8424,-1.8426,-1.8428,-1.8433,-1.8436,-1.844,-1.8443,-1.8443,-1.8445,-1.8444,-1.8449,-1.8445,-1.8452,-1.8447,-1.8449,-1.845,-1.845,-1.845,-1.8444,-1.8451,-1.8465,-1.8466,-1.845,-1.845,-1.845,0,-1.8418,-1.8426,-1.8433,-1.8435,-1.8438,-1.8441,-1.8443,-1.8445,-1.8447,-1.845,-1.8452,-1.8456,-1.8457,-1.846,-1.8459,-1.8456,-1.8466,-1.8462,-1.8466,-1.8466,-1.8467,-1.8467,-1.8481,-1.847,-1.847,-1.847,-1.847,0,-1.843,-1.8436,-1.8437,-1.8441,-1.8447,-1.8447,-1.8453,-1.8454,-1.8456,-1.846,-1.8458,-1.8462,-1.8461,-1.8465,-1.8464,-1.847,-1.8471,-1.847,-1.847,-1.847,-1.847,-1.8471,-1.847,-1.847,-1.847,-1.847,-1.847,0,-1.8441,-1.8441,-1.8448,-1.8451,-1.8452,-1.8456,-1.8458,-1.8462,-1.8462,-1.8467,-1.8468,-1.8469,-1.8473,-1.8473,-1.8477,-1.8477,-1.8483,-1.8482,-1.8482,-1.8482,-1.8485,-1.8485,-1.8499,-1.8501,-1.849,-1.849,-1.849,0,-1.8448,-1.8452,-1.8455,-1.8458,-1.8459,-1.8464,-1.8466,-1.8466,-1.8468,-1.8471,-1.8474,-1.8478,-1.8481,-1.8487,-1.8488,-1.8491,-1.849,-1.8495,-1.849,-1.849,-1.8489,-1.8489,-1.8489,-1.8496,-1.8496,-1.8496,-1.8496,0,-1.846,-1.846,-1.8464,-1.8467,-1.847,-1.8473,-1.8476,-1.8478,-1.8478,-1.8481,-1.8485,-1.8487,-1.8492,-1.8495,-1.8498,-1.8499,-1.8497,-1.8497,-1.8498,-1.8498,-1.8497,-1.8497,-1.8484,-1.8497,-1.8497,-1.8497,-1.8497,-1.8497,-1.8468,-1.8472,-1.8474,-1.8478,-1.848,-1.8483,-1.8486,-1.8487,-1.849,-1.8494,-1.8494,-1.8498,-1.85,-1.8504,-1.8505,-1.8508,-1.8506,-1.8508,-1.8508,-1.8509,-1.8509,-1.8498,-1.8509,-1.8509,-1.8509,-1.8509,-1.8509,0,-1.8479,-1.8481,-1.8485,-1.8488,-1.8491,-1.849,-1.8493,-1.8495,-1.8499,-1.8501,-1.8504,-1.8508,-1.8512,-1.8513,-1.8516,-1.8518,-1.8517,-1.8519,-1.8518,-1.8518,-1.851,-1.8509,-1.8519,-1.8519,-1.8519,-1.8519,-1.8519,-1.8519,-1.8485,-1.8491,-1.8491,-1.8498,-1.8499,-1.8504,-1.8505,-1.8507,-1.8509,-1.8514,-1.8517,-1.8518,-1.8519,-1.8522,-1.8525,-1.8525,-1.8526,-1.8528,-1.8527,-1.852,-1.8519,-1.8518,-1.8516,-1.8528,-1.8528,-1.8535,-1.8535,-1.8535]},{"header":{"parameterUnit":"m.s-1","parameterCategory":1,"la1":30.2991,"la2":30.254,"lo1":-89.0895,"lo2":-89.0444,"dy":0.0017,"dx":0.0017,"nx":28,"ny":28,"refTime":"2025-02-12T09:00:00:Z","depth":0,"parameterNumber":3,"parameterNumberName":"V-component_of_WINDS"},"data":[0,0,0,0,0,0,0,0,0,0,0,0,0,0,0,0,0,0,0,0,0,0,0,0,0,0,0,0,0,0,0,0,0,0,0,0,0,0,0,0,0,0,0,0,0,0,0,0,0,0,0,0,0,0,0,0,0,0,4.82,4.8202,0,4.8375,4.8377,4.8379,4.8431,4.843,4.8429,4.8428,4.8608,4.8614,4.8619,0,0,0,0,0,0,0,0,0,0,0,0,0,4.7914,4.7918,4.82,4.8202,4.8204,4.8375,4.8377,4.838,4.8431,4.843,4.8429,4.8428,4.8606,4.8613,4.862,0,0,0,0,0,0,0,0,0,0,0,0,0,4.8058,4.792,4.82,4.8251,4.8257,4.8374,4.8377,4.838,4.8431,4.843,4.8429,4.8427,4.8604,4.8612,4.8621,4.87,0,0,4.8647,4.865,0,0,0,0,0,0,0,0,4.805,4.8069,4.8241,4.8247,4.8255,4.838,4.8342,4.8488,4.8432,4.8365,4.8428,4.8427,4.8533,4.8548,4.8583,4.8709,4.8716,4.8647,4.8652,4.8656,4.8658,0,0,0,0,0,0,0,4.804,4.8061,4.8269,4.8243,4.8252,4.8266,4.8285,4.837,4.8455,4.8371,4.8375,4.8395,4.8537,4.8575,4.8588,4.8719,4.8647,4.8655,4.866,4.8663,4.8925,4.8926,0,0,0,0,0,0,4.8021,4.8053,4.8264,4.8275,4.8147,4.8272,4.8293,4.8341,4.8454,4.847,4.8396,4.8397,4.8561,4.8578,4.8595,4.87,4.8656,4.8664,4.8669,4.8923,4.8925,4.8927,0,0,0,0,0,0,4.8014,4.8039,4.8257,4.8165,4.8194,4.8279,4.8332,4.8345,4.8384,4.8473,4.8489,4.8419,4.8561,4.8583,4.8675,4.8706,4.8668,4.8675,4.8921,4.8924,4.8926,4.8907,0,0,0,0,0,0,4.8006,4.8036,4.8066,4.8165,4.8198,4.8333,4.8333,4.835,4.8398,4.8401,4.8499,4.8514,4.8562,4.8662,4.8683,4.8717,4.8682,4.8918,4.8922,4.8925,4.8905,4.8909,4.8912,0,0,0,0,0,4.7996,4.8053,4.8068,4.8093,4.8237,4.8334,4.8354,4.8407,4.84,4.8432,4.8491,4.8511,4.8699,4.8671,4.8695,4.8732,4.8917,4.8921,4.8925,4.8904,4.8908,4.8912,0,0,0,0,0,0,4.7954,4.8066,4.8084,4.8175,4.8245,4.8343,4.8385,4.8409,4.8482,4.8482,4.8545,4.8567,4.8656,4.8703,4.867,4.8818,4.8809,4.8818,4.8784,4.8789,4.8792,4.878,4.8689,0,0,0,0,0,4.7956,4.8025,4.8119,4.819,4.8225,4.8299,4.8343,4.8378,4.8453,4.8483,4.8548,4.862,4.8697,4.8745,4.8819,4.8912,4.8937,4.895,4.8953,4.8956,4.8964,4.9021,4.903,4.8941,4.8941,4.8941,0,0,4.796,4.8029,4.8069,4.8184,4.8242,4.8314,4.8323,4.8397,4.8452,4.8494,4.8587,4.8637,4.8722,4.8817,4.8861,4.8859,4.8994,4.8961,4.8962,4.8969,4.9027,4.9035,4.9042,4.8944,4.8943,4.8943,0,0,4.8004,4.8062,4.813,4.8189,4.8279,4.8328,4.8344,4.844,4.8476,4.8569,4.8604,4.8671,4.8799,4.886,4.8908,4.898,4.9004,4.9003,4.9021,4.9076,4.9083,4.909,4.912,4.913,4.901,4.901,4.901,0,4.7997,4.8106,4.8162,4.8236,4.8288,4.8331,4.8402,4.8457,4.8565,4.8601,4.8596,4.8762,4.8822,4.8934,4.8952,4.8988,4.9011,4.8992,4.9078,4.9085,4.9092,4.9122,4.9132,4.9009,4.9009,4.9009,4.9009,0,4.8096,4.8171,4.8216,4.8322,4.8378,4.845,4.8519,4.8569,4.8601,4.8651,4.8749,4.8823,4.8916,4.8945,4.8975,4.9062,4.9059,4.9065,4.9057,4.9099,4.9128,4.914,4.9009,4.9009,4.9009,4.9009,0,0,4.8117,4.8257,4.8272,4.8323,4.8427,4.8487,4.8562,4.8654,4.8698,4.8772,4.884,4.895,4.8958,4.9012,4.905,4.9099,4.9157,4.91,4.9103,4.9112,4.9264,4.9261,4.9273,4.9173,4.9175,4.9177,4.9258,0,4.8178,4.8315,4.837,4.8482,4.8555,4.8599,4.8665,4.8737,4.8788,4.8858,4.8913,4.8992,4.8995,4.9029,4.9078,4.9139,4.9189,4.9134,4.9239,4.9242,4.922,4.9287,4.9283,4.9356,4.9269,4.9271,4.9273,0,4.8265,4.8343,4.8463,4.8563,4.8595,4.8654,4.8746,4.8811,4.8895,4.8929,4.8992,4.9028,4.9112,4.9097,4.9216,4.9178,4.9224,4.9261,4.9265,4.928,4.9262,4.9307,4.938,4.9392,4.929,4.9289,4.9288,0,4.8274,4.8408,4.8499,4.8541,4.8658,4.8699,4.875,4.8833,4.8886,4.8966,4.9002,4.909,4.9139,4.9207,4.9267,4.925,4.9383,4.9372,4.9416,4.9414,4.9443,4.9441,4.9528,4.9467,4.9467,4.9467,4.9466,0,4.8337,4.841,4.8506,4.8561,4.8646,4.8709,4.8791,4.8845,4.8919,4.8988,4.903,4.9094,4.9169,4.9243,4.9291,4.9385,4.9405,4.9437,4.945,4.9435,4.9432,4.9469,4.9466,4.947,4.9469,4.9468,4.9468,0,4.8361,4.8428,4.853,4.8634,4.8663,4.872,4.881,4.8868,4.8921,4.9008,4.9033,4.9117,4.9207,4.9274,4.939,4.9422,4.9524,4.9535,4.9496,4.9503,4.9545,4.9542,4.9662,4.9683,4.9604,4.9604,4.9605,0,4.8398,4.8456,4.8567,4.8617,4.8669,4.8747,4.8803,4.8869,4.8925,4.9028,4.9074,4.9168,4.9247,4.939,4.9462,4.9553,4.9568,4.9604,4.9582,4.9568,4.9574,4.9571,4.958,4.9608,4.9608,4.9609,4.9609,0,4.8458,4.849,4.8568,4.8661,4.8726,4.8801,4.8877,4.8916,4.8995,4.9057,4.9151,4.9213,4.9334,4.9428,4.9526,4.958,4.961,4.9616,4.9632,4.9619,4.9596,4.9614,4.9509,4.9613,4.9613,4.9612,4.9612,4.9612,4.8493,4.8549,4.8637,4.8725,4.879,4.8861,4.8922,4.8984,4.9064,4.9168,4.9202,4.93,4.9388,4.9524,4.9579,4.9659,4.9658,4.968,4.9686,4.9691,4.9693,4.9581,4.9676,4.9676,4.9676,4.9676,4.9676,0,4.8559,4.8619,4.8699,4.8806,4.8876,4.8898,4.8985,4.9042,4.9129,4.9208,4.9285,4.9396,4.9489,4.957,4.9667,4.9715,4.9731,4.9739,4.9737,4.9751,4.9685,4.9664,4.9724,4.9724,4.9724,4.9724,4.9724,4.9724,4.8602,4.8698,4.8741,4.8872,4.8932,4.9029,4.9078,4.9145,4.9209,4.9331,4.9409,4.9462,4.9543,4.9647,4.9735,4.9756,4.9792,4.9797,4.9822,4.976,4.9754,4.9749,4.973,4.9803,4.9803,4.9881,4.9882,4.9883]}]]